[[{"header":{"parameterUnit":"m.s-1","parameterCategory":1,"la1":30.2991,"la2":30.254,"lo1":-89.0895,"lo2":-89.0444,"dy":0.0017,"dx":0.0017,"nx":28,"ny":28,"refTime":"2023-03-19T21:00:00:Z","depth":0,"parameterNumber":2,"parameterNumberName":"U-component_of_WINDS"},"data":[0,0,0,0,0,0,0,0,0,0,0,0,0,0,0,0,0,0,0,0,0,0,0,0,0,0,0,0,0,0,0,0,0,0,0,0,0,0,0,0,0,0,0,0,0,0,0,0,0,0,0,0,0,0,0,0,0,0,-3.6614,-3.6614,0,-3.6662,-3.6663,-3.6663,-3.6621,-3.662,-3.6618,-3.6616,-3.6665,-3.6668,-3.6671,0,0,0,0,0,0,0,0,0,0,0,0,0,-3.6484,-3.6487,-3.6613,-3.6614,-3.6615,-3.6662,-3.6663,-3.6663,-3.6622,-3.662,-3.6617,-3.6615,-3.6664,-3.6668,-3.6671,0,0,0,0,0,0,0,0,0,0,0,0,0,-3.6537,-3.6488,-3.6613,-3.66,-3.6599,-3.6662,-3.6663,-3.6664,-3.6622,-3.6619,-3.6617,-3.6614,-3.6663,-3.6668,-3.6672,-3.6751,0,0,-3.6685,-3.6687,0,0,0,0,0,0,0,0,-3.6534,-3.6542,-3.6601,-3.6601,-3.66,-3.6633,-3.6635,-3.6693,-3.6623,-3.6613,-3.6616,-3.6613,-3.6657,-3.6661,-3.6676,-3.6753,-3.6755,-3.6686,-3.6688,-3.669,-3.6692,0,0,0,0,0,0,0,-3.6531,-3.654,-3.6633,-3.6602,-3.6601,-3.6591,-3.6596,-3.6646,-3.6649,-3.6614,-3.6611,-3.6617,-3.6656,-3.6672,-3.6677,-3.6756,-3.6686,-3.6689,-3.6692,-3.6694,-3.69,-3.6902,0,0,0,0,0,0,-3.6529,-3.6537,-3.6631,-3.6634,-3.656,-3.6595,-3.6601,-3.6625,-3.6648,-3.6649,-3.6619,-3.6615,-3.6666,-3.6672,-3.6679,-3.6772,-3.669,-3.6694,-3.6697,-3.6897,-3.69,-3.6903,0,0,0,0,0,0,-3.6526,-3.6537,-3.6629,-3.6585,-3.6596,-3.66,-3.6628,-3.6627,-3.6643,-3.6653,-3.6653,-3.6635,-3.6664,-3.6673,-3.6733,-3.6773,-3.6696,-3.67,-3.6894,-3.6898,-3.6902,-3.6959,0,0,0,0,0,0,-3.6522,-3.6537,-3.6567,-3.6586,-3.6598,-3.6683,-3.6631,-3.663,-3.6651,-3.6646,-3.6668,-3.6669,-3.6663,-3.6727,-3.6738,-3.6778,-3.6704,-3.689,-3.6896,-3.6901,-3.6954,-3.6965,-3.6974,0,0,0,0,0,-3.6518,-3.6581,-3.6568,-3.658,-3.6636,-3.6685,-3.6692,-3.6684,-3.6655,-3.6685,-3.6691,-3.6668,-3.6767,-3.6733,-3.6745,-3.6787,-3.6887,-3.6894,-3.69,-3.6949,-3.6963,-3.6974,0,0,0,0,0,0,-3.6566,-3.6583,-3.6569,-3.664,-3.6662,-3.6678,-3.6716,-3.6699,-3.6729,-3.6723,-3.6712,-3.6717,-3.6781,-3.679,-3.6752,-3.6865,-3.6823,-3.6832,-3.6856,-3.6869,-3.6879,-3.6874,-3.6707,0,0,0,0,0,-3.6585,-3.6624,-3.6637,-3.6698,-3.671,-3.6711,-3.6732,-3.6725,-3.6746,-3.6755,-3.6765,-3.6787,-3.6823,-3.6847,-3.688,-3.6956,-3.6959,-3.699,-3.7001,-3.7009,-3.7016,-3.7056,-3.707,-3.6924,-3.6924,-3.6924,0,0,-3.6624,-3.6638,-3.6663,-3.6708,-3.6724,-3.6764,-3.6719,-3.6763,-3.6793,-3.6761,-3.6819,-3.6828,-3.6851,-3.6919,-3.695,-3.6929,-3.7058,-3.7017,-3.7024,-3.7027,-3.7064,-3.7078,-3.709,-3.6929,-3.6928,-3.6927,0,0,-3.6715,-3.6731,-3.6783,-3.68,-3.6824,-3.6825,-3.6838,-3.6857,-3.6862,-3.6919,-3.6897,-3.6932,-3.6994,-3.7012,-3.7029,-3.7128,-3.7108,-3.714,-3.7193,-3.7232,-3.7243,-3.7253,-3.7287,-3.73,-3.7148,-3.7148,-3.7148,0,-3.6761,-3.682,-3.6812,-3.6858,-3.6878,-3.6853,-3.6905,-3.6922,-3.6956,-3.6971,-3.6947,-3.7025,-3.7039,-3.711,-3.7135,-3.715,-3.7164,-3.7136,-3.7242,-3.7252,-3.7262,-3.7294,-3.7307,-3.7151,-3.7151,-3.715,-3.715,0,-3.6874,-3.6916,-3.6956,-3.6989,-3.7014,-3.7064,-3.7063,-3.7089,-3.708,-3.7083,-3.7142,-3.7158,-3.7194,-3.7211,-3.7203,-3.7282,-3.7268,-3.7244,-3.7201,-3.7279,-3.7309,-3.7322,-3.7156,-3.7155,-3.7154,-3.7153,0,0,-3.6995,-3.7025,-3.7039,-3.7054,-3.708,-3.7112,-3.716,-3.7196,-3.7218,-3.7243,-3.7283,-3.7337,-3.7315,-3.7334,-3.7327,-3.7362,-3.7438,-3.7333,-3.7334,-3.7351,-3.7525,-3.7541,-3.7556,-3.7426,-3.7429,-3.743,-3.7523,0,-3.7087,-3.717,-3.7165,-3.7243,-3.7281,-3.7258,-3.73,-3.7321,-3.7326,-3.7359,-3.7364,-3.7402,-3.7371,-3.7382,-3.7415,-3.7422,-3.7473,-3.7415,-3.7462,-3.7463,-3.7454,-3.7572,-3.7589,-3.7675,-3.7534,-3.7537,-3.7538,0,-3.7204,-3.7233,-3.7315,-3.7335,-3.7351,-3.7389,-3.7421,-3.7453,-3.7476,-3.7477,-3.7499,-3.7487,-3.7536,-3.7494,-3.756,-3.7521,-3.754,-3.7546,-3.7549,-3.7552,-3.7504,-3.7576,-3.7703,-3.7715,-3.7557,-3.7555,-3.7554,0,-3.7281,-3.7341,-3.7398,-3.7412,-3.7437,-3.7464,-3.7476,-3.7496,-3.7518,-3.7546,-3.756,-3.7594,-3.7613,-3.7639,-3.7636,-3.7606,-3.7704,-3.7661,-3.7705,-3.7705,-3.7724,-3.7723,-3.7854,-3.774,-3.774,-3.774,-3.774,0,-3.7382,-3.7433,-3.7433,-3.7468,-3.7525,-3.7518,-3.7574,-3.7583,-3.7602,-3.7637,-3.762,-3.7654,-3.765,-3.7684,-3.7682,-3.7737,-3.7746,-3.7747,-3.7746,-3.7748,-3.7747,-3.7758,-3.7751,-3.7743,-3.7743,-3.7742,-3.7741,0,-3.7478,-3.748,-3.754,-3.7559,-3.7566,-3.7606,-3.7622,-3.7655,-3.7659,-3.7705,-3.7715,-3.7722,-3.7761,-3.7762,-3.7807,-3.7806,-3.7872,-3.7865,-3.7864,-3.7862,-3.7905,-3.79,-3.8046,-3.8064,-3.7941,-3.7942,-3.7943,0,-3.7541,-3.7579,-3.7603,-3.7626,-3.7639,-3.7677,-3.7699,-3.7695,-3.7719,-3.7748,-3.7777,-3.7815,-3.7845,-3.7909,-3.7918,-3.7952,-3.7944,-3.7994,-3.7949,-3.795,-3.7943,-3.794,-3.7943,-3.8001,-3.8003,-3.8004,-3.8005,0,-3.7652,-3.7651,-3.7684,-3.7718,-3.7745,-3.7771,-3.7796,-3.7816,-3.7814,-3.7842,-3.7882,-3.7906,-3.7952,-3.799,-3.8023,-3.8035,-3.8019,-3.8019,-3.803,-3.8031,-3.8028,-3.8029,-3.7885,-3.8015,-3.8014,-3.8013,-3.8013,-3.8012,-3.7732,-3.7765,-3.7786,-3.7824,-3.7842,-3.7865,-3.7896,-3.7905,-3.7938,-3.7976,-3.7972,-3.8016,-3.8038,-3.8082,-3.8097,-3.8132,-3.8114,-3.8132,-3.8135,-3.8139,-3.8143,-3.8025,-3.8138,-3.8138,-3.8137,-3.8137,-3.8137,0,-3.784,-3.7853,-3.7888,-3.7922,-3.7952,-3.7936,-3.7962,-3.7988,-3.8027,-3.8049,-3.8079,-3.8125,-3.8162,-3.8174,-3.821,-3.8235,-3.8229,-3.8244,-3.8241,-3.8244,-3.8157,-3.8143,-3.8249,-3.8249,-3.8249,-3.8249,-3.8249,-3.8249,-3.79,-3.7954,-3.7957,-3.802,-3.8033,-3.8077,-3.8093,-3.8114,-3.8132,-3.8184,-3.8214,-3.8222,-3.824,-3.8277,-3.831,-3.8313,-3.8326,-3.8344,-3.8343,-3.8261,-3.825,-3.8239,-3.8225,-3.8347,-3.8347,-3.8427,-3.8428,-3.8428]},{"header":{"parameterUnit":"m.s-1","parameterCategory":1,"la1":30.2991,"la2":30.254,"lo1":-89.0895,"lo2":-89.0444,"dy":0.0017,"dx":0.0017,"nx":28,"ny":28,"refTime":"2023-03-19T21:00:00:Z","depth":0,"parameterNumber":3,"parameterNumberName":"V-component_of_WINDS"},"data":[0,0,0,0,0,0,0,0,0,0,0,0,0,0,0,0,0,0,0,0,0,0,0,0,0,0,0,0,0,0,0,0,0,0,0,0,0,0,0,0,0,0,0,0,0,0,0,0,0,0,0,0,0,0,0,0,0,0,0.603,0.603,0,0.6042,0.6042,0.6042,0.593,0.5927,0.5924,0.5921,0.5938,0.5941,0.5944,0,0,0,0,0,0,0,0,0,0,0,0,0,0.5916,0.5919,0.603,0.603,0.603,0.6042,0.6042,0.6042,0.593,0.5927,0.5923,0.5919,0.5937,0.5941,0.5945,0,0,0,0,0,0,0,0,0,0,0,0,0,0.5951,0.592,0.603,0.5976,0.5971,0.6041,0.6042,0.6042,0.5931,0.5926,0.5922,0.5917,0.5935,0.594,0.5945,0.607,0,0,0.5961,0.5963,0,0,0,0,0,0,0,0,0.5949,0.5955,0.5983,0.5979,0.5974,0.5979,0.6008,0.6052,0.5932,0.5946,0.592,0.5915,0.5956,0.5959,0.5971,0.6071,0.6071,0.5961,0.5964,0.5966,0.5968,0,0,0,0,0,0,0,0.5947,0.5954,0.6034,0.5984,0.5978,0.5953,0.5952,0.6016,0.5977,0.5945,0.5937,0.5939,0.5952,0.5967,0.5971,0.6072,0.5961,0.5966,0.5969,0.5971,0.6277,0.6282,0,0,0,0,0,0,0.5951,0.5953,0.6034,0.6035,0.595,0.5959,0.5958,0.5983,0.5976,0.5971,0.5943,0.5934,0.5961,0.5965,0.5971,0.6119,0.5966,0.5971,0.5974,0.6272,0.6278,0.6283,0,0,0,0,0,0,0.5949,0.5959,0.6034,0.5992,0.5999,0.5965,0.5994,0.5985,0.5999,0.5975,0.5968,0.5965,0.5957,0.5964,0.6047,0.6118,0.5973,0.5978,0.6266,0.6274,0.6281,0.6415,0,0,0,0,0,0,0.5946,0.5959,0.6005,0.5993,0.6002,0.6108,0.5998,0.5989,0.6008,0.5996,0.5993,0.5989,0.5954,0.604,0.6052,0.6123,0.5982,0.6259,0.6269,0.6278,0.6404,0.6426,0.6445,0,0,0,0,0,0.5943,0.6043,0.6008,0.6018,0.6058,0.6112,0.6117,0.6073,0.6014,0.6061,0.6045,0.5989,0.6108,0.6049,0.6061,0.6135,0.6255,0.6266,0.6277,0.6395,0.6422,0.6445,0,0,0,0,0,0,0.6066,0.604,0.6001,0.61,0.6109,0.6093,0.6151,0.6103,0.613,0.6118,0.6064,0.6065,0.6157,0.6153,0.6089,0.6257,0.6171,0.6186,0.6256,0.6282,0.6302,0.6302,0.5986,0,0,0,0,0,0.6104,0.6148,0.6124,0.6214,0.622,0.6185,0.6207,0.6172,0.618,0.6184,0.6174,0.6185,0.6225,0.6252,0.6287,0.6402,0.6402,0.6459,0.6479,0.6496,0.6511,0.6574,0.6601,0.6321,0.6321,0.6321,0,0,0.6184,0.6176,0.6207,0.6239,0.6241,0.6291,0.6189,0.6245,0.6282,0.6192,0.627,0.6263,0.6272,0.6372,0.6415,0.6372,0.6588,0.6511,0.6525,0.653,0.6589,0.6615,0.6639,0.6329,0.6327,0.6326,0,0,0.6357,0.6353,0.6429,0.6434,0.6438,0.6414,0.6433,0.6423,0.6416,0.6492,0.6427,0.647,0.6539,0.6549,0.6563,0.674,0.669,0.6753,0.6862,0.6924,0.6946,0.6966,0.7032,0.7056,0.6766,0.6767,0.6767,0,0.6457,0.6527,0.6475,0.6535,0.6553,0.6472,0.655,0.6557,0.6574,0.6589,0.6539,0.6625,0.6625,0.6728,0.6771,0.6784,0.6806,0.6754,0.6947,0.6966,0.6983,0.7046,0.7071,0.6774,0.6773,0.6773,0.6772,0,0.6651,0.6701,0.6762,0.6779,0.6802,0.6871,0.6832,0.6862,0.6826,0.6808,0.6888,0.6885,0.692,0.694,0.6906,0.7039,0.7012,0.6956,0.6869,0.7019,0.7077,0.71,0.6786,0.6783,0.678,0.6779,0,0,0.6904,0.6891,0.6914,0.6922,0.6921,0.696,0.7026,0.7058,0.7087,0.71,0.7157,0.7217,0.7165,0.7181,0.7147,0.7201,0.7346,0.7138,0.7137,0.718,0.7496,0.7542,0.757,0.7311,0.7315,0.7318,0.7497,0,0.7075,0.7186,0.7141,0.7257,0.7304,0.7228,0.7286,0.7294,0.7278,0.7317,0.7301,0.7346,0.7272,0.7281,0.7331,0.7317,0.7409,0.7303,0.7366,0.7369,0.737,0.76,0.7648,0.7816,0.7519,0.7522,0.7525,0,0.7289,0.7311,0.7432,0.7424,0.7442,0.7495,0.7522,0.7559,0.7566,0.7551,0.757,0.7524,0.759,0.7502,0.7595,0.7524,0.7547,0.7544,0.755,0.7557,0.7459,0.7617,0.7868,0.7895,0.756,0.7557,0.7555,0,0.7466,0.7525,0.7606,0.7614,0.7606,0.7646,0.7645,0.7647,0.767,0.7693,0.7708,0.774,0.7758,0.7785,0.775,0.7687,0.785,0.7757,0.7842,0.7844,0.7883,0.7882,0.8145,0.7892,0.7891,0.7891,0.789,0,0.7663,0.7741,0.7685,0.7735,0.7821,0.7769,0.7856,0.7847,0.7849,0.7898,0.7834,0.7881,0.783,0.7873,0.7846,0.7929,0.7937,0.7929,0.7922,0.7937,0.7939,0.7954,0.7943,0.7897,0.7896,0.7895,0.7893,0,0.7877,0.7842,0.7925,0.791,0.7908,0.7973,0.7961,0.8008,0.7987,0.805,0.8062,0.8031,0.8079,0.8045,0.8093,0.8074,0.8185,0.816,0.8183,0.8178,0.8266,0.826,0.8552,0.8589,0.8309,0.8311,0.8313,0,0.8007,0.8065,0.8056,0.8083,0.8086,0.813,0.8153,0.8104,0.8131,0.8144,0.8191,0.8232,0.8263,0.8344,0.8327,0.8364,0.8341,0.8441,0.8346,0.8361,0.8347,0.8346,0.8353,0.8461,0.8465,0.8467,0.8469,0,0.8243,0.8223,0.8256,0.8286,0.8314,0.8335,0.8351,0.8377,0.8328,0.8362,0.8409,0.8433,0.8481,0.8525,0.8556,0.8556,0.8507,0.8499,0.8521,0.854,0.8552,0.855,0.8239,0.8493,0.8491,0.8489,0.8488,0.8487,0.8421,0.847,0.8472,0.8512,0.8519,0.8535,0.8579,0.8564,0.8602,0.8637,0.8606,0.8664,0.8671,0.8706,0.8714,0.876,0.8719,0.8751,0.876,0.8769,0.8783,0.8542,0.8765,0.8764,0.8763,0.8763,0.8762,0,0.8657,0.8654,0.8691,0.8715,0.8748,0.8694,0.871,0.8742,0.8793,0.8802,0.8834,0.889,0.8932,0.8919,0.8957,0.8997,0.8975,0.9009,0.9007,0.9009,0.8816,0.8794,0.9026,0.9026,0.9026,0.9026,0.9026,0.9025,0.8784,0.8864,0.8845,0.8929,0.8926,0.8981,0.8994,0.901,0.9018,0.9083,0.9117,0.9107,0.9108,0.9146,0.9183,0.9178,0.9197,0.924,0.9228,0.9048,0.9022,0.8998,0.8977,0.9244,0.9244,0.9417,0.9419,0.942]}]]